Location: Comstock Ranch
(38.0499°N, 120.2627°W)
Time: 23:02:58
(UTC+00:00)

Cosmos 1606 Rocket - Pass Details

Date: 08 September 2024
Orbit: 599 x 626 km, 82.5° (Epoch: 12 October)

Event Time Altitude Azimuth Distance (km) Brightness Sun altitude
Rises 12:28:55 0° 185° (S) 2,836 6.7 -14.0°
Reaches altitude 10° 12:31:06 10° 185° (S) 1,940 5.9 -13.5°
Maximum altitude 12:35:23 87° 101° (ESE) 612 3.5 -12.7°
Drops below altitude 10° 12:39:45 10° 8° (N) 1,970 6.5 -11.9°
Sets 12:41:59 0° 8° (N) 2,883 7.3 -11.5°
